RH
100 100 100 100 100 100 97 84 74 60 50 44 43 41 42 35 34 37 37 38 40 51 51 57 70 71 86 89 87 80 72 65 60 54 66 73 66 68 61 38 37 41 45 50
100 100 100 100 100 100 100 96 89 73 65 60 55 50 45 41 40 43 47 46 46 51 67 60 62 62 59 66 74 85 87 91 91 86 84 83 100 100 92 72 70 68 60 64
100 98 99 97 95 84 70 70 77 64 53 48 53 43 38 52 63 67 69 49 48 45 50 97 100 100 100 100 97 99 100 100 100 100 100 94 94 93 93 93 84 81 69 44
83 96 90 94 98 100 96 95 80 69 63 51 39 39 56 72 69 76 75 77 62 56 46 40 43 74 98 100 100 100 100 99 99 94 91 84 68 74 74 76 65 50 34 22
100 100 100 100 100 100 89 86 70 57 58 55 65 86 63 65 76 88 94 99 85 67 63 60 42 39 41 54 68 70 67 71 71 65 58 50 46 39 30 26 24 19 16 16
78 99 100 100 100 100 100 95 100 100 100 84 100 89 66 81 90 93 98 87 81 77 74 61 53 47 52 55 50 46 44 39 38 37 35 30 25 23 21 19 19 16 14 12
100 100 100 100 100 100 100 100 100 100 98 79 98 96 77 69 98 99 98 91 82 69 77 74 60 72 70 64 56 44 42 39 40 33 30 26 24 20 19 18 16 14 11 11
100 100 100 100 100 100 100 100 92 94 100 96 86 70 88 100 100 98 90 84 82 92 87 82 71 64 69 67 59 60 60 54 40 31 27 23 23 20 15 14 15 13 12 12
100 100 100 100 99 98 92 88 98 100 92 99 100 99 100 97 100 99 83 85 100 100 97 96 90 80 74 58 60 57 42 41 36 29 27 23 19 17 17 16 16 14 13 12
96 87 98 100 100 100 97 100 97 93 81 85 80 100 98 100 100 100 100 99 93 85 78 73 86 82 76 72 64 48 44 41 34 30 24 23 22 18 16 16 14 12 11 12
83 64 63 74 77 90 94 100 100 98 94 97 94 95 100 100 100 100 91 93 91 94 88 86 92 80 74 67 58 54 44 37 31 26 24 21 19 17 15 12 12 11 11 10
60 61 47 60 78 62 59 87 96 90 97 100 100 99 100 100 99 93 92 96 95 100 95 88 91 96 84 71 66 52 42 36 30 26 21 18 19 17 16 14 14 13 10 10
34 34 27 19 23 27 29 37 44 68 94 97 92 100 100 99 100 100 100 100 100 100 96 96 90 81 70 71 59 43 40 31 26 20 18 17 18 18 17 18 23 26 26 16
15 15 15 16 20 25 32 48 65 83 84 91 90 100 99 100 100 100 100 100 100 100 95 99 83 67 74 69 52 46 36 31 25 18 17 16 18 18 17 20 34 38 41 29
12 14 14 16 20 23 28 40 52 64 77 87 93 88 100 100 100 100 100 100 100 100 87 72 85 84 72 58 50 40 33 27 21 18 16 16 17 16 16 20 30 40 58 52
13 14 14 19 20 18 22 25 35 54 80 100 100 100 100 100 100 100 95 90 82 77 93 86 88 76 62 54 39 32 26 24 22 18 15 15 16 16 16 21 31 34 41 49
18 18 19 21 19 18 15 36 49 62 87 90 94 100 100 100 100 91 87 87 98 94 90 83 84 77 54 40 34 29 25 23 20 17 16 15 14 15 16 22 36 47 39 35
19 21 20 20 22 23 31 36 43 55 69 95 100 100 93 99 100 100 91 100 96 98 94 94 77 54 42 36 31 27 24 20 17 15 16 16 14 14 14 18 32 49 54 54
23 23 23 23 24 24 27 38 48 62 86 100 100 100 100 100 96 100 100 91 93 100 95 73 55 44 38 32 26 25 20 17 16 15 16 16 14 13 13 14 30 48 62 59
28 27 27 30 29 31 41 46 54 80 96 97 100 100 100 100 100 92 84 98 98 90 73 58 47 41 31 27 24 17 14 13 13 14 14 16 13 13 12 12 19 45 63 68
28 31 36 36 35 50 78 74 90 96 97 100 100 100 98 93 92 97 100 100 90 76 59 49 39 30 27 19 13 12 11 10 11 11 11 12 13 12 11 11 15 31 60 70
40 44 50 54 73 91 87 87 82 84 98 97 93 84 90 97 100 100 93 87 72 58 50 37 33 25 15 13 11 10 9 9 9 10 10 10 12 12 11 10 12 25 43 63
47 54 78 90 100 100 96 88 83 82 96 88 84 96 100 100 96 86 78 72 63 43 38 34 22 16 14 12 12 11 10 9 9 9 9 10 11 12 12 10 10 17 33 46
78 92 96 100 99 97 84 74 82 92 94 99 100 100 99 92 86 82 83 61 42 38 32 20 18 15 15 14 14 14 12 11 10 10 10 11 11 12 13 12 11 14 20 34
90 87 81 79 60 60 70 89 96 88 100 100 100 97 91 89 87 79 54 44 41 26 20 17 17 17 16 16 16 16 15 14 12 13 13 12 13 13 14 13 13 12 14 23
77 72 69 68 83 93 86 89 100 100 100 100 86 92 96 88 78 55 49 42 24 20 18 17 18 18 18 18 18 19 19 18 17 16 16 15 15 14 15 15 14 13 12 14
Wind_Speed
69 69 76 74 73 72 73 71 72 73 72 72 72 66 65 59 57 58 57 60 63 63 62 64 63 64 64 64 66 69 73 75 76 77 78 80 81 82 82 79 79 80 79 78
77 74 78 78 77 76 73 74 78 77 74 73 71 70 70 70 61 60 60 56 58 66 70 71 71 72 72 73 73 74 76 78 80 82 84 85 87 89 90 90 91 94 94 93
82 81 81 82 80 81 80 79 81 81 79 78 74 74 72 68 66 66 64 61 67 61 66 75 75 75 76 79 80 82 84 86 89 91 95 96 98 99 100 101 103 107 108 109
85 85 84 82 82 84 82 85 85 85 83 82 78 71 66 68 67 67 68 70 72 69 66 64 74 83 84 85 89 92 94 97 99 101 103 106 106 107 110 110 114 118 117 112
84 84 85 85 87 91 90 91 92 93 85 82 78 77 71 72 71 71 72 73 73 77 75 74 77 76 80 88 93 98 100 103 105 109 111 112 114 112 107 105 107 104 97 95
88 88 87 87 89 88 89 89 83 71 76 84 85 87 73 74 74 77 79 81 82 80 77 80 79 80 81 85 89 91 93 96 99 103 102 102 99 95 95 92 98 92 87 85
90 88 91 92 91 90 90 91 91 92 95 92 91 91 82 79 79 81 83 85 86 84 81 78 79 83 86 87 89 90 92 92 96 92 91 91 91 92 89 88 89 85 81 79
96 94 96 96 96 96 98 98 99 101 98 96 96 94 87 86 85 88 89 88 85 82 79 80 81 84 85 87 88 90 91 94 92 89 88 86 87 86 81 77 76 73 73 70
103 100 101 100 101 104 102 100 101 107 107 101 99 95 93 93 94 94 94 89 81 81 81 82 83 85 87 88 89 90 89 88 88 86 86 82 78 76 69 65 64 64 62 62
106 106 105 105 107 107 106 106 109 108 109 104 99 97 96 95 96 94 88 83 81 84 82 82 85 86 89 91 92 89 89 89 85 84 81 76 70 69 62 58 59 57 57 57
112 113 106 112 112 114 114 114 116 112 107 101 99 96 94 95 94 91 88 83 82 84 84 84 85 86 89 92 91 90 89 86 83 81 74 66 64 62 58 55 53 52 51 52
116 118 106 110 115 115 118 118 116 111 104 100 98 92 94 95 93 91 89 85 84 85 87 85 87 90 93 94 92 93 87 80 78 74 64 60 58 56 53 51 50 48 49 48
111 113 104 97 100 101 101 100 101 101 106 100 96 93 96 93 89 87 84 83 83 85 86 87 90 92 92 94 95 86 80 76 71 64 59 54 52 52 50 47 47 46 49 48
85 83 78 74 78 80 82 86 90 93 98 97 97 92 91 89 84 81 81 81 82 85 86 90 92 91 93 96 83 78 75 72 70 63 56 50 48 49 48 44 46 47 49 50
70 70 71 68 68 69 71 75 81 85 87 89 90 89 83 81 79 78 78 79 83 85 87 88 89 92 91 81 74 73 69 69 65 58 52 47 46 46 46 45 46 46 49 51
58 59 58 59 63 62 64 66 65 70 77 82 85 82 78 77 76 76 77 78 80 82 83 85 86 80 76 75 72 68 66 62 59 53 49 45 44 45 45 46 46 46 46 47
43 44 47 46 50 53 49 50 56 60 66 70 71 71 71 73 74 74 74 74 76 78 79 77 72 72 74 72 68 68 65 58 53 49 47 44 42 43 44 47 47 46 46 42
37 38 39 38 42 41 44 49 52 54 57 58 60 65 66 67 70 72 72 73 73 69 66 66 70 73 72 69 69 67 62 56 52 48 44 44 42 42 43 45 47 45 45 44
32 33 32 33 34 34 36 42 46 48 48 47 52 56 57 62 63 60 59 61 58 58 64 69 72 73 70 71 65 61 56 53 50 47 44 42 41 42 43 44 46 46 45 44
32 33 30 30 31 32 36 38 37 35 39 42 42 45 50 48 46 50 48 50 56 62 67 71 72 71 70 63 58 55 51 49 47 45 42 41 40 41 41 43 45 45 45 44
30 28 27 27 25 28 33 33 32 34 34 34 33 32 35 39 39 40 47 54 60 65 70 69 69 66 60 57 53 50 47 46 44 43 40 39 40 40 40 41 44 45 44 43
26 24 25 24 23 24 26 27 27 25 24 25 28 29 29 33 39 46 51 58 64 67 66 65 61 58 55 52 49 46 43 41 39 39 38 36 36 38 39 40 42 44 44 44
25 22 17 20 24 26 25 21 18 19 23 23 21 25 32 39 42 48 56 60 62 63 61 58 56 54 51 46 43 40 37 35 34 33 33 32 32 33 36 39 40 43 45 45
22 22 21 20 22 23 20 14 10 13 15 20 26 32 36 40 47 53 56 60 60 57 55 54 51 47 42 39 35 33 30 29 28 28 29 28 29 30 31 33 37 42 45 45
22 21 20 23 17 8 7 8 12 15 21 28 30 33 38 45 48 53 57 57 53 52 50 45 41 38 34 31 28 27 25 23 23 24 25 26 26 27 29 30 33 37 43 46
15 12 10 7 7 8 9 10 15 21 25 29 31 37 40 44 50 55 53 50 48 45 39 36 33 30 28 25 23 22 21 20 18 19 21 23 25 26 26 29 30 34 39 44
Wind_Direction
267 269 270 272 275 275 276 278 280 282 284 286 289 288 290 293 292 293 295 292 286 284 279 274 273 274 276 275 275 274 274 272 273 274 275 274 274 275 276 277 274 271 268 267
267 267 269 269 269 270 273 275 278 280 281 284 286 289 292 296 291 290 291 293 297 289 283 280 280 279 278 278 278 278 277 277 276 276 274 274 274 274 273 273 274 275 273 269
270 271 271 272 272 273 275 277 277 278 282 283 283 286 291 291 290 294 293 291 294 295 290 275 273 272 272 272 272 272 272 271 271 272 272 272 273 273 273 274 273 273 274 273
271 271 270 270 273 274 275 276 278 280 280 280 285 287 285 288 292 293 294 293 293 295 297 294 284 273 272 272 272 272 271 271 272 272 272 272 273 272 272 272 271 269 267 267
272 271 270 272 273 275 275 275 276 279 283 286 290 288 290 292 292 292 291 292 293 295 297 296 299 288 283 278 276 274 274 275 275 274 274 275 276 277 276 275 273 270 269 267
271 271 271 273 272 274 278 282 282 275 272 282 282 285 292 288 288 291 290 290 294 295 293 296 296 294 286 283 283 282 283 284 285 283 283 283 282 281 280 279 277 276 272 266
269 271 272 272 272 275 275 279 278 278 280 283 282 284 287 288 287 287 288 291 292 292 292 293 293 286 285 285 285 287 289 289 290 288 284 284 283 281 281 279 278 275 271 267
268 269 272 271 270 270 274 277 279 280 280 279 279 283 286 284 283 285 290 290 291 288 288 289 288 287 285 286 289 293 294 292 292 289 289 287 285 284 282 279 275 272 269 267
268 268 271 271 272 273 272 275 278 277 279 279 277 278 281 282 284 286 289 289 282 280 281 282 284 286 286 287 292 294 294 295 296 294 290 289 287 285 283 279 274 271 269 265
266 265 266 267 269 272 274 272 276 279 278 277 276 275 278 280 283 286 285 282 281 280 281 283 283 285 288 290 293 296 298 298 295 293 293 292 290 285 282 277 274 270 267 263
266 266 263 264 266 267 269 270 272 275 274 274 276 275 277 279 280 281 282 280 279 277 281 282 283 286 290 293 295 298 298 297 293 293 294 291 287 284 281 277 273 269 266 262
266 265 262 263 264 265 265 265 268 270 271 270 271 272 274 275 276 278 280 280 278 277 280 284 285 287 290 295 298 299 296 294 293 293 292 290 286 283 280 278 274 271 267 262
265 264 264 264 265 264 263 262 262 262 264 267 270 271 273 275 275 275 277 277 277 279 282 284 286 289 292 295 298 297 295 294 293 293 292 286 282 280 277 276 274 276 274 272
263 263 263 261 258 259 258 257 256 255 258 262 265 267 270 270 270 272 273 276 278 281 283 285 287 292 294 296 298 296 296 297 295 295 290 283 279 277 274 273 271 271 274 278
261 260 259 258 258 256 256 253 254 256 258 261 264 267 267 268 268 271 273 276 278 281 284 289 292 293 295 294 295 295 294 294 294 292 287 281 279 276 273 271 266 268 271 278
264 262 261 259 258 255 251 252 256 258 257 257 259 265 267 267 269 271 273 278 281 285 288 290 292 291 292 295 295 295 295 295 292 288 284 281 278 274 272 269 267 266 264 272
262 259 257 254 254 253 256 257 253 253 254 255 259 261 262 265 271 274 278 282 285 287 288 289 289 291 294 295 295 297 297 293 289 286 283 280 277 270 269 266 263 267 272 272
252 253 253 253 255 253 248 247 249 250 252 255 257 260 264 268 271 275 281 283 284 284 285 288 291 293 295 296 297 297 294 291 288 286 281 278 276 270 267 262 259 261 267 274
250 251 250 248 250 251 249 244 245 248 252 255 259 263 267 270 273 278 278 282 283 284 287 291 292 295 296 298 298 295 291 288 285 284 282 277 274 270 265 258 256 258 263 270
241 242 243 243 243 245 246 244 246 246 248 252 257 259 264 273 276 277 280 283 285 288 290 291 295 296 298 298 296 292 289 285 282 281 280 276 273 268 265 260 253 253 257 266
240 240 239 241 239 236 234 235 234 238 245 251 261 264 267 276 278 282 282 284 288 290 291 294 297 297 298 297 296 293 290 286 283 280 279 276 273 268 267 259 255 253 255 258
239 237 235 237 228 226 230 232 234 237 245 255 261 265 274 278 279 281 287 290 289 291 295 298 298 300 300 300 298 295 291 287 283 279 277 275 271 266 268 261 255 252 253 256
230 221 216 212 213 220 224 229 231 245 256 259 264 270 273 277 284 290 291 292 293 297 299 301 301 301 300 301 300 298 294 288 283 278 276 274 270 265 268 265 259 253 253 256
207 199 196 197 210 215 218 227 221 234 254 264 268 271 279 286 291 293 295 295 299 302 303 302 302 301 302 302 301 300 298 293 285 279 277 275 271 268 266 268 264 260 253 255
196 199 203 209 214 183 172 207 241 263 266 270 275 281 288 291 296 297 297 303 305 305 304 303 303 303 303 303 304 305 305 300 290 281 277 277 276 273 270 270 267 265 260 259
186 194 189 175 185 212 233 254 269 271 270 273 282 290 294 299 300 301 306 307 307 308 307 305 304 303 304 306 307 308 308 305 300 291 282 280 279 278 274 274 272 271 267 260